Weather History for Watford City, ND

Change the Weather History Date:

Thursday, September 26, 2013

  Actual Average (KISN) Record (KISN)
Temperature  
Mean Temperature 50 °F 52 °F  
Max Temperature 53 °F 66 °F 94 °F (2014)
Min Temperature 46 °F 37 °F 20 °F (1910)
Degree Days  
Heating Degree Days 16 13  
Month to date heating degree days 217  
Since 1 July heating degree days 288  
Cooling Degree Days 0 0  
Month to date cooling degree days 24  
Year to date cooling degree days 453  
Moisture  
Dew Point 46 °F    
Average Humidity 85    
Maximum Humidity 100    
Minimum Humidity 62    
Precipitation  
Precipitation 0.24 in 0.03 in 0.42 in (1959)
Month to date precipitation 0.92  
Year to date precipitation 12.04  
Snow  
Snow 0.00 in 0.00 in T in (1972)
Month to date snowfall 0.1  
Since 1 July snowfall 0.1  
Since 1 September snowfall 0.1  
Snow Depth -    
Sea Level Pressure  
Sea Level Pressure 29.69 in    
Wind  
Wind Speed 11 mph (West)    
Max Wind Speed 23 mph    
Max Gust Speed 33 mph    
Visibility 10 miles    
Events Rain    
T = Trace of Precipitation, MM = Missing Value Source: NWS Daily Summary

Daily Weather History Graph

Daily Weather History Graph

Search for Another Location

Airport:

Trip Planner

Search our weather history database for the weather conditions in past years. The results will help you decide how hot, cold, wet, or windy it might be!

Date:

Astronomy

Sep. 26, 2013 Rise Set
Actual Time 7:45 AM CDT 7:41 PM CDT
Civil Twilight 7:14 AM CDT 8:12 PM CDT
Nautical Twilight 6:38 AM CDT 8:48 PM CDT
Astronomical Twilight 6:01 AM CDT 9:25 PM CDT
Moon No Moon Rise 3:01 PM CDT (9/26)
Length of Visible Light 12h 57m
Length of Day
11h 56m
Waning Gibbous, 54% of the Moon is Illuminated
Sep 26
Waning Gibbous
Sep 26
Last Quarter
Oct 4
New
Oct 11
First Quarter
Oct 18
Full

Hourly Weather History & Observations

Time (CDT) Temp. Windchill Dew Point Humidity Pressure Visibility Wind Dir Wind Speed Gust Speed Precip Events Conditions
12:15 AM 51.8 °F - 50.0 °F 94% 29.58 in 10.0 mi NW 8.1 mph - N/A   Mostly Cloudy
12:35 AM 51.8 °F - 50.0 °F 94% 29.59 in 10.0 mi WNW 8.1 mph - N/A Rain Light Rain
12:55 AM 51.8 °F - 50.0 °F 94% 29.64 in 7.0 mi WSW 18.4 mph 23.0 mph N/A Rain Light Rain
1:15 AM 50.0 °F - 50.0 °F 100% 29.60 in 7.0 mi NW 13.8 mph 19.6 mph 0.08 in Rain Light Rain
1:35 AM 50.0 °F - 50.0 °F 100% 29.59 in 4.0 mi NW 11.5 mph 18.4 mph 0.12 in Rain Light Rain
1:55 AM 50.0 °F - 50.0 °F 100% 29.57 in 5.0 mi North 11.5 mph - 0.24 in Rain Light Rain
2:15 AM 50.0 °F - 50.0 °F 100% 29.56 in 10.0 mi North 10.4 mph 16.1 mph N/A   Mostly Cloudy
2:35 AM 50.0 °F - 50.0 °F 100% 29.57 in 10.0 mi North 6.9 mph - N/A   Partly Cloudy
2:55 AM 50.0 °F - 50.0 °F 100% 29.57 in 10.0 mi WNW 3.5 mph - N/A   Mostly Cloudy
3:15 AM 50.0 °F - 50.0 °F 100% 29.57 in 10.0 mi West 5.8 mph - N/A   Overcast
3:35 AM 50.0 °F - 50.0 °F 100% 29.58 in 10.0 mi WSW 4.6 mph - N/A   Mostly Cloudy
3:55 AM 50.0 °F - 50.0 °F 100% 29.58 in 8.0 mi West 4.6 mph - N/A   Mostly Cloudy
4:15 AM 50.0 °F - 50.0 °F 100% 29.57 in 7.0 mi West 5.8 mph - N/A   Overcast
4:35 AM 50.0 °F - 50.0 °F 100% 29.57 in 10.0 mi WNW 6.9 mph - N/A   Overcast
4:55 AM 50.0 °F - 50.0 °F 100% 29.57 in 7.0 mi NW 4.6 mph - N/A Rain Light Rain
5:15 AM 50.0 °F - 50.0 °F 100% 29.57 in 9.0 mi NW 4.6 mph - N/A   Overcast
5:35 AM 50.0 °F - 50.0 °F 100% 29.55 in 8.0 mi NNW 6.9 mph - N/A   Overcast
5:55 AM 50.0 °F - 50.0 °F 100% 29.55 in 8.0 mi North 4.6 mph - N/A   Overcast
6:15 AM 50.0 °F - 50.0 °F 100% 29.56 in 7.0 mi NNW 4.6 mph - N/A   Overcast
6:35 AM 50.0 °F - 50.0 °F 100% 29.57 in 9.0 mi NW 6.9 mph - N/A   Overcast
6:55 AM 50.0 °F - 50.0 °F 100% 29.59 in 10.0 mi WNW 6.9 mph - N/A   Overcast
7:15 AM 50.0 °F - 50.0 °F 100% 29.61 in 9.0 mi West 9.2 mph - N/A   Overcast
7:35 AM 50.0 °F - 50.0 °F 100% 29.61 in 10.0 mi West 9.2 mph - N/A   Overcast
7:55 AM 51.8 °F - 50.0 °F 94% 29.61 in 10.0 mi WNW 10.4 mph - N/A   Overcast
8:15 AM 50.0 °F - 50.0 °F 100% 29.62 in 9.0 mi West 12.7 mph 18.4 mph N/A   Overcast
8:35 AM 50.0 °F - 50.0 °F 100% 29.62 in 9.0 mi WNW 9.2 mph - N/A   Overcast
8:55 AM 50.0 °F - 50.0 °F 100% 29.62 in 10.0 mi West 9.2 mph - N/A   Overcast
9:15 AM 50.0 °F - 50.0 °F 100% 29.63 in 10.0 mi WNW 6.9 mph - N/A   Overcast
9:35 AM 50.0 °F - 50.0 °F 100% 29.63 in 10.0 mi WNW 9.2 mph - N/A   Overcast
9:55 AM 50.0 °F - 48.2 °F 94% 29.63 in 10.0 mi WNW 9.2 mph - N/A   Overcast
10:15 AM 50.0 °F - 50.0 °F 100% 29.64 in 10.0 mi West 12.7 mph - N/A   Overcast
10:35 AM 51.8 °F - 48.2 °F 88% 29.64 in 10.0 mi West 13.8 mph 18.4 mph N/A   Overcast
10:55 AM 50.0 °F - 48.2 °F 94% 29.65 in 10.0 mi West 15.0 mph 19.6 mph N/A   Overcast
11:15 AM 50.0 °F - 48.2 °F 94% 29.65 in 10.0 mi West 17.3 mph 24.2 mph N/A   Overcast
11:35 AM 50.0 °F - 46.4 °F 87% 29.66 in 10.0 mi WSW 16.1 mph 24.2 mph N/A   Overcast
11:55 AM 50.0 °F - 46.4 °F 87% 29.65 in 10.0 mi WSW 15.0 mph 19.6 mph N/A   Overcast
12:15 PM 53.6 °F - 46.4 °F 77% 29.66 in 10.0 mi West 15.0 mph 23.0 mph N/A   Mostly Cloudy
12:35 PM 53.6 °F - 46.4 °F 77% 29.67 in 10.0 mi WSW 15.0 mph 25.3 mph N/A   Overcast
12:55 PM 51.8 °F - 46.4 °F 82% 29.67 in 10.0 mi West 17.3 mph 26.5 mph N/A   Overcast
1:15 PM 53.6 °F - 44.6 °F 72% 29.68 in 10.0 mi WSW 18.4 mph 26.5 mph N/A   Overcast
1:35 PM 51.8 °F - 44.6 °F 76% 29.69 in 10.0 mi West 16.1 mph 21.9 mph N/A   Overcast
1:55 PM 53.6 °F - 44.6 °F 72% 29.69 in 10.0 mi West 19.6 mph 24.2 mph N/A   Overcast
2:15 PM 53.6 °F - 44.6 °F 72% 29.70 in 10.0 mi WSW 21.9 mph 28.8 mph N/A   Unknown
2:35 PM 53.6 °F - 42.8 °F 67% 29.70 in 10.0 mi WSW 20.7 mph 28.8 mph N/A   Unknown
2:55 PM 53.6 °F - 44.6 °F 72% 29.70 in 10.0 mi WSW 21.9 mph 26.5 mph N/A   Overcast
3:15 PM 53.6 °F - 44.6 °F 72% 29.71 in 10.0 mi WSW 18.4 mph 27.6 mph N/A   Overcast
3:35 PM 53.6 °F - 42.8 °F 67% 29.72 in 10.0 mi WSW 23.0 mph 33.4 mph N/A   Overcast
3:55 PM 53.6 °F - 42.8 °F 67% 29.73 in 10.0 mi WSW 21.9 mph 29.9 mph N/A   Overcast
4:15 PM 53.6 °F - 41.0 °F 62% 29.73 in 10.0 mi WSW 17.3 mph 28.8 mph N/A   Overcast
4:35 PM 53.6 °F - 41.0 °F 62% 29.73 in 10.0 mi WSW 19.6 mph 26.5 mph N/A   Overcast
4:55 PM 51.8 °F - 41.0 °F 67% 29.74 in 10.0 mi West 19.6 mph 29.9 mph N/A   Overcast
5:15 PM 51.8 °F - 41.0 °F 67% 29.75 in 10.0 mi WSW 21.9 mph 27.6 mph N/A   Overcast
5:35 PM 53.6 °F - 41.0 °F 62% 29.76 in 10.0 mi West 21.9 mph 31.1 mph N/A   Overcast
5:55 PM 51.8 °F - 41.0 °F 67% 29.76 in 10.0 mi West 17.3 mph 24.2 mph N/A   Overcast
6:15 PM 51.8 °F - 41.0 °F 67% 29.77 in 10.0 mi West 17.3 mph 26.5 mph N/A   Overcast
6:35 PM 51.8 °F - 41.0 °F 67% 29.77 in 10.0 mi West 17.3 mph 27.6 mph N/A   Mostly Cloudy
6:55 PM 50.0 °F - 41.0 °F 71% 29.79 in 10.0 mi West 19.6 mph 27.6 mph N/A   Overcast
7:15 PM 50.0 °F - 41.0 °F 71% 29.79 in 10.0 mi West 17.3 mph 26.5 mph N/A   Overcast
7:35 PM 50.0 °F - 42.8 °F 76% 29.81 in 10.0 mi West 12.7 mph 19.6 mph N/A   Mostly Cloudy
7:55 PM 50.0 °F - 41.0 °F 71% 29.81 in 10.0 mi West 12.7 mph 24.2 mph N/A   Overcast
8:15 PM 48.2 °F - 41.0 °F 76% 29.81 in 10.0 mi West 13.8 mph 18.4 mph N/A   Overcast
8:35 PM 48.2 °F - 41.0 °F 76% 29.81 in 10.0 mi West 16.1 mph 20.7 mph N/A   Overcast
8:55 PM 48.2 °F - 41.0 °F 76% 29.82 in 10.0 mi West 11.5 mph 21.9 mph N/A   Mostly Cloudy
9:15 PM 48.2 °F - 41.0 °F 76% 29.83 in 10.0 mi West 13.8 mph 18.4 mph N/A   Overcast
9:35 PM 48.2 °F - 41.0 °F 76% 29.84 in 10.0 mi West 12.7 mph 18.4 mph N/A   Overcast
9:55 PM 48.2 °F - 41.0 °F 76% 29.84 in 10.0 mi West 11.5 mph - N/A   Overcast
10:15 PM 48.2 °F - 41.0 °F 76% 29.86 in 10.0 mi West 8.1 mph - N/A   Mostly Cloudy
10:35 PM 46.4 °F 41.5 °F 41.0 °F 81% 29.86 in 10.0 mi WNW 10.4 mph - N/A   Partly Cloudy
10:55 PM 46.4 °F 42.9 °F 41.0 °F 81% 29.90 in 10.0 mi WSW 6.9 mph - N/A   Clear
11:15 PM 46.4 °F 43.5 °F 41.0 °F 81% 29.90 in 10.0 mi WSW 5.8 mph - N/A   Clear
11:35 PM 46.4 °F 41.5 °F 39.2 °F 76% 29.89 in 10.0 mi West 10.4 mph - N/A   Clear
11:55 PM 46.4 °F 42.4 °F 39.2 °F 76% 29.89 in 10.0 mi WSW 8.1 mph - N/A   Clear